| time (UTC) | temp C | wind direction | speed KPH | gust KPH | rain 1hr cm | rain 24hr cm | rain mn cm | humidity % | barometer mb |
| 20260510122146 | 11 | 246 | 3.2 | 4.8 | 0.00 | 0.00 | 0.00 | 59 | 1016.4 |
| 20260510121122 | 11 | 231 | 1.6 | 3.2 | 0.00 | 0.00 | 0.00 | 60 | 1016.1 |
| 20260510120118 | 11 | 273 | 3.2 | 3.2 | 0.00 | 0.00 | 0.00 | 60 | 1016.3 |
| 20260510115134 | 12 | 254 | 3.2 | 3.2 | 0.00 | 0.00 | 0.00 | 58 | 1016.6 |
| 20260510114130 | 12 | 207 | 3.2 | 3.2 | 0.00 | 0.00 | 0.00 | 57 | 1016.5 |
| 20260510113126 | 12 | 224 | 1.6 | 3.2 | 0.00 | 0.00 | 0.00 | 57 | 1016.5 |
| 20260510112123 | 12 | 235 | 1.6 | 3.2 | 0.00 | 0.00 | 0.00 | 55 | 1016.4 |
| 20260510111119 | 13 | 269 | 1.6 | 1.6 | 0.00 | 0.00 | 0.00 | 52 | 1016.5 |
| 20260510110136 | 13 | 281 | 3.2 | 3.2 | 0.00 | 0.00 | 0.00 | 51 | 1016.5 |
| 20260510105151 | 12 | 354 | 1.6 | 3.2 | 0.00 | 0.00 | 0.00 | 52 | 1016.6 |
| 20260510104127 | 12 | 359 | 3.2 | 4.8 | 0.00 | 0.00 | 0.00 | 52 | 1016.6 |
| 20260510103123 | 13 | 299 | 9.7 | 11.3 | 0.00 | 0.00 | 0.00 | 49 | 1016.6 |
| 20260510102120 | 13 | 301 | 9.7 | 11.3 | 0.00 | 0.00 | 0.00 | 50 | 1016.5 |
| 20260510101136 | 13 | 310 | 6.4 | 8.0 | 0.00 | 0.00 | 0.00 | 50 | 1016.6 |
| 20260510100134 | 13 | 338 | 4.8 | 6.4 | 0.00 | 0.00 | 0.00 | 49 | 1016.6 |
| 20260510095128 | 13 | 327 | 1.6 | 3.2 | 0.00 | 0.00 | 0.00 | 50 | 1016.4 |
| 20260510094124 | 13 | 357 | 4.8 | 6.4 | 0.00 | 0.00 | 0.00 | 51 | 1016.7 |
| 20260510093120 | 13 | 294 | 1.6 | 3.2 | 0.00 | 0.00 | 0.00 | 53 | 1016.7 |
| 20260510092116 | 13 | 0.0 | 0.0 | 0.00 | 0.00 | 0.00 | 52 | 1016.8 | |
| 20260510091133 | 13 | 329 | 0.0 | 1.6 | 0.00 | 0.00 | 0.00 | 53 | 1017.0 |
| 20260510090129 | 13 | 75 | 1.6 | 3.2 | 0.00 | 0.00 | 0.00 | 53 | 1016.8 |
| 20260510085125 | 14 | 290 | 3.2 | 3.2 | 0.00 | 0.00 | 0.00 | 52 | 1016.9 |
| 20260510084121 | 15 | 298 | 6.4 | 6.4 | 0.00 | 0.00 | 0.00 | 49 | 1017.1 |
| 20260510083118 | 14 | 318 | 4.8 | 4.8 | 0.00 | 0.00 | 0.00 | 50 | 1017.0 |
| 20260510082134 | 14 | 326 | 4.8 | 6.4 | 0.00 | 0.00 | 0.00 | 50 | 1017.1 |
| 20260510081130 | 15 | 340 | 4.8 | 4.8 | 0.00 | 0.00 | 0.00 | 46 | 1017.2 |
| 20260510080126 | 15 | 274 | 3.2 | 3.2 | 0.00 | 0.00 | 0.00 | 46 | 1017.2 |
| 20260510075122 | 16 | 257 | 1.6 | 3.2 | 0.00 | 0.00 | 0.00 | 45 | 1017.1 |
| 20260510074139 | 15 | 232 | 1.6 | 3.2 | 0.00 | 0.00 | 0.00 | 46 | 1017.4 |
| 20260510073155 | 16 | 251 | 3.2 | 3.2 | 0.00 | 0.00 | 0.00 | 44 | 1017.5 |
| 20260510072131 | 15 | 232 | 3.2 | 3.2 | 0.00 | 0.00 | 0.00 | 45 | 1017.3 |
| 20260510071150 | 16 | 220 | 1.6 | 3.2 | 0.00 | 0.00 | 0.00 | 43 | 1017.4 |
| 20260510070124 | 16 | 249 | 3.2 | 3.2 | 0.00 | 0.00 | 0.00 | 43 | 1017.5 |
| 20260510065120 | 16 | 245 | 3.2 | 3.2 | 0.00 | 0.00 | 0.00 | 42 | 1017.5 |
| 20260510064120 | 16 | 244 | 3.2 | 3.2 | 0.00 | 0.00 | 0.00 | 42 | 1017.4 |
| 20260510063152 | 16 | 254 | 1.6 | 3.2 | 0.00 | 0.00 | 0.00 | 41 | 1017.3 |
| 20260510062128 | 16 | 229 | 3.2 | 3.2 | 0.00 | 0.00 | 0.00 | 43 | 1017.6 |
| 20260510061124 | 17 | 259 | 1.6 | 3.2 | 0.00 | 0.00 | 0.00 | 40 | 1017.3 |
| 20260510060120 | 17 | 260 | 1.6 | 1.6 | 0.00 | 0.00 | 0.00 | 40 | 1017.3 |
| 20260510055316 | 17 | 258 | 1.6 | 3.2 | 0.00 | 0.00 | 0.00 | 41 | 1017.5 |
| 20260510053831 | 17 | 274 | 1.6 | 3.2 | 0.00 | 0.00 | 0.00 | 42 | 1017.7 |
| 20260510053533 | 17 | 260 | 1.6 | 3.2 | 0.00 | 0.00 | 0.00 | 42 | 1017.7 |
| 20260510053210 | 17 | 259 | 3.2 | 3.2 | 0.00 | 0.00 | 0.00 | 44 | 1017.7 |
| 20260510052128 | 17 | 254 | 3.2 | 4.8 | 0.00 | 0.00 | 0.00 | 43 | 1017.5 |
| 20260510041634 | 18 | 224 | 1.6 | 3.2 | 0.00 | 0.00 | 0.00 | 40 | 1018.1 |
| 20260510040701 | 18 | 220 | 1.6 | 3.2 | 0.00 | 0.00 | 0.00 | 40 | 1018.0 |
| 20260510035624 | 19 | 222 | 1.6 | 3.2 | 0.00 | 0.00 | 0.00 | 39 | 1017.8 |
| 20260510034624 | 20 | 228 | 1.6 | 3.2 | 0.00 | 0.00 | 0.00 | 38 | 1017.9 |
| 20260510033623 | 20 | 225 | 1.6 | 3.2 | 0.00 | 0.00 | 0.00 | 36 | 1017.8 |
| 20260510032642 | 21 | 194 | 1.6 | 3.2 | 0.00 | 0.00 | 0.00 | 34 | 1017.9 |
| 20260510031656 | 21 | 163 | 3.2 | 4.8 | 0.00 | 0.00 | 0.00 | 33 | 1018.0 |
| 20260510030653 | 21 | 158 | 1.6 | 4.8 | 0.00 | 0.00 | 0.00 | 33 | 1018.0 |
| 20260510025635 | 21 | 124 | 3.2 | 4.8 | 0.00 | 0.00 | 0.00 | 32 | 1018.0 |
| 20260510024633 | 22 | 91 | 3.2 | 6.4 | 0.00 | 0.00 | 0.00 | 31 | 1017.6 |
| 20260510023627 | 22 | 0.0 | 3.2 | 0.00 | 0.00 | 0.00 | 30 | 1018.0 | |
| 20260510022628 | 22 | 61 | 6.4 | 8.0 | 0.00 | 0.00 | 0.00 | 28 | 1017.8 |
| 20260510021648 | 22 | 55 | 4.8 | 6.4 | 0.00 | 0.00 | 0.00 | 29 | 1018.0 |
| 20260510020624 | 22 | 61 | 8.0 | 11.3 | 0.00 | 0.00 | 0.00 | 27 | 1018.1 |
| 20260510015643 | 23 | 46 | 4.8 | 8.0 | 0.00 | 0.00 | 0.00 | 28 | 1017.9 |
| 20260510014641 | 23 | 40 | 4.8 | 4.8 | 0.00 | 0.00 | 0.00 | 29 | 1018.3 |
| 20260510013636 | 23 | 67 | 6.4 | 9.7 | 0.00 | 0.00 | 0.00 | 28 | 1018.3 |
| 20260510012638 | 23 | 50 | 9.7 | 14.5 | 0.00 | 0.00 | 0.00 | 30 | 1018.2 |
| 20260510011716 | 23 | 61 | 4.8 | 9.7 | 0.00 | 0.00 | 0.00 | 30 | 1018.5 |
| 20260510010630 | 23 | 50 | 9.7 | 12.9 | 0.00 | 0.00 | 0.00 | 30 | 1018.6 |
| 20260510005632 | 23 | 59 | 11.3 | 20.9 | 0.00 | 0.00 | 0.00 | 30 | 1018.7 |
| 20260510004628 | 23 | 67 | 6.4 | 9.7 | 0.00 | 0.00 | 0.00 | 31 | 1018.7 |
| 20260510003622 | 23 | 79 | 4.8 | 9.7 | 0.00 | 0.00 | 0.00 | 30 | 1018.6 |
| 20260510002618 | 23 | 110 | 3.2 | 6.4 | 0.00 | 0.00 | 0.00 | 30 | 1018.8 |
| 20260510001640 | 24 | 44 | 9.7 | 16.1 | 0.00 | 0.00 | 0.00 | 30 | 1018.9 |
| 20260510000639 | 24 | 25 | 9.7 | 14.5 | 0.00 | 0.00 | 0.00 | 29 | 1018.9 |
| 20260509235632 | 24 | 64 | 9.7 | 14.5 | 0.00 | 0.00 | 0.00 | 28 | 1019.0 |
| 20260509234629 | 24 | 67 | 4.8 | 6.4 | 0.00 | 0.00 | 0.00 | 29 | 1019.0 |
| 20260509233651 | 23 | 57 | 4.8 | 8.0 | 0.00 | 0.00 | 0.00 | 29 | 1019.3 |
| 20260509232631 | 24 | 52 | 11.3 | 16.1 | 0.00 | 0.00 | 0.00 | 29 | 1019.3 |
| 20260509231621 | 23 | 94 | 4.8 | 8.0 | 0.00 | 0.00 | 0.00 | 31 | 1019.0 |
| 20260509230703 | 24 | 46 | 12.9 | 17.7 | 0.00 | 0.00 | 0.00 | 30 | 1019.4 |
| 20260509225617 | 23 | 54 | 14.5 | 17.7 | 0.00 | 0.00 | 0.00 | 31 | 1019.4 |
| 20260509224635 | 23 | 95 | 6.4 | 9.7 | 0.00 | 0.00 | 0.00 | 32 | 1019.7 |
| 20260509223634 | 23 | 181 | 3.2 | 4.8 | 0.00 | 0.00 | 0.00 | 31 | 1019.8 |
| 20260509222636 | 23 | 67 | 8.0 | 14.5 | 0.00 | 0.00 | 0.00 | 32 | 1019.8 |
| 20260509221655 | 23 | 71 | 4.8 | 6.4 | 0.00 | 0.00 | 0.00 | 32 | 1019.8 |
| 20260509220626 | 23 | 96 | 3.2 | 6.4 | 0.00 | 0.00 | 0.00 | 34 | 1020.1 |
| 20260509215624 | 23 | 49 | 8.0 | 9.7 | 0.00 | 0.00 | 0.00 | 32 | 1020.3 |
| 20260509214627 | 23 | 176 | 4.8 | 6.4 | 0.00 | 0.00 | 0.00 | 32 | 1020.3 |
| 20260509213622 | 24 | 37 | 8.0 | 12.9 | 0.00 | 0.00 | 0.00 | 32 | 1020.2 |
| 20260509212621 | 24 | 11 | 12.9 | 17.7 | 0.00 | 0.00 | 0.00 | 32 | 1020.2 |
| 20260509211642 | 23 | 21 | 6.4 | 14.5 | 0.00 | 0.00 | 0.00 | 31 | 1020.5 |
| 20260509210635 | 24 | 55 | 8.0 | 9.7 | 0.00 | 0.00 | 0.00 | 31 | 1020.7 |
| 20260509205637 | 23 | 147 | 4.8 | 8.0 | 0.00 | 0.00 | 0.00 | 33 | 1020.8 |
| 20260509204631 | 22 | 223 | 8.0 | 8.0 | 0.00 | 0.00 | 0.00 | 33 | 1020.8 |
| 20260509203625 | 23 | 125 | 6.4 | 11.3 | 0.00 | 0.00 | 0.00 | 32 | 1020.8 |
| 20260509202627 | 23 | 189 | 12.9 | 17.7 | 0.00 | 0.00 | 0.00 | 32 | 1021.1 |
| 20260509201644 | 22 | 169 | 3.2 | 6.4 | 0.00 | 0.00 | 0.00 | 32 | 1021.1 |
| 20260509200620 | 22 | 188 | 6.4 | 9.7 | 0.00 | 0.00 | 0.00 | 32 | 1021.3 |
| 20260509195641 | 22 | 129 | 4.8 | 4.8 | 0.00 | 0.00 | 0.00 | 33 | 1021.3 |
| 20260509194636 | 22 | 125 | 4.8 | 11.3 | 0.00 | 0.00 | 0.00 | 35 | 1021.3 |
| 20260509193632 | 22 | 99 | 6.4 | 11.3 | 0.00 | 0.00 | 0.00 | 34 | 1021.4 |
| 20260509192637 | 22 | 51 | 8.0 | 9.7 | 0.00 | 0.00 | 0.00 | 31 | 1021.7 |
| 20260509191649 | 21 | 340 | 6.4 | 11.3 | 0.00 | 0.00 | 0.00 | 32 | 1021.9 |
| 20260509190625 | 21 | 328 | 6.4 | 8.0 | 0.00 | 0.00 | 0.00 | 34 | 1021.8 |
| 20260509185635 | 21 | 164 | 8.0 | 11.3 | 0.00 | 0.00 | 0.00 | 34 | 1022.0 |
| 20260509184626 | 21 | 177 | 12.9 | 16.1 | 0.00 | 0.00 | 0.00 | 35 | 1022.1 |
| 20260509183640 | 21 | 181 | 4.8 | 6.4 | 0.00 | 0.00 | 0.00 | 35 | 1022.2 |
| 20260509182641 | 20 | 185 | 1.6 | 4.8 | 0.00 | 0.00 | 0.00 | 37 | 1022.2 |
| 20260509181633 | 20 | 335 | 3.2 | 4.8 | 0.00 | 0.00 | 0.00 | 36 | 1022.5 |
| 20260509180635 | 20 | 242 | 1.6 | 3.2 | 0.00 | 0.00 | 0.00 | 41 | 1022.4 |
| 20260509175633 | 20 | 4 | 8.0 | 16.1 | 0.00 | 0.00 | 0.00 | 37 | 1022.4 |
| 20260509174632 | 19 | 249 | 4.8 | 9.7 | 0.00 | 0.00 | 0.00 | 41 | 1022.6 |
| 20260509173631 | 20 | 302 | 6.4 | 8.0 | 0.00 | 0.00 | 0.00 | 39 | 1022.5 |
| 20260509172624 | 19 | 51 | 3.2 | 4.8 | 0.00 | 0.00 | 0.00 | 43 | 1022.9 |
| 20260509171624 | 19 | 309 | 4.8 | 8.0 | 0.00 | 0.00 | 0.00 | 41 | 1022.6 |
| 20260509170623 | 18 | 210 | 3.2 | 6.4 | 0.00 | 0.00 | 0.00 | 43 | 1022.9 |
| 20260509165641 | 17 | 219 | 0.0 | 3.2 | 0.00 | 0.00 | 0.00 | 43 | 1022.8 |
| 20260509164634 | 17 | 183 | 6.4 | 11.3 | 0.00 | 0.00 | 0.00 | 46 | 1022.7 |
| 20260509163632 | 18 | 175 | 4.8 | 6.4 | 0.00 | 0.00 | 0.00 | 45 | 1022.7 |
| 20260509162632 | 17 | 200 | 3.2 | 4.8 | 0.00 | 0.00 | 0.00 | 45 | 1023.0 |
| 20260509161631 | 17 | 264 | 1.6 | 4.8 | 0.00 | 0.00 | 0.00 | 46 | 1022.8 |
| 20260509160628 | 17 | 3 | 0.0 | 3.2 | 0.00 | 0.00 | 0.00 | 45 | 1023.0 |
| 20260509155628 | 17 | 9 | 4.8 | 8.0 | 0.00 | 0.00 | 0.00 | 48 | 1022.9 |
| 20260509154620 | 16 | 325 | 4.8 | 6.4 | 0.00 | 0.00 | 0.00 | 48 | 1023.0 |
| 20260509153622 | 16 | 10 | 4.8 | 6.4 | 0.00 | 0.00 | 0.00 | 50 | 1023.0 |
| 20260509152640 | 17 | 44 | 1.6 | 3.2 | 0.00 | 0.00 | 0.00 | 48 | 1023.0 |
| 20260509151658 | 16 | 268 | 1.6 | 4.8 | 0.00 | 0.00 | 0.00 | 49 | 1022.9 |
| 20260509150636 | 16 | 226 | 1.6 | 3.2 | 0.00 | 0.00 | 0.00 | 50 | 1022.9 |
| 20260509145632 | 16 | 209 | 4.8 | 6.4 | 0.00 | 0.00 | 0.00 | 54 | 1022.8 |
| 20260509144630 | 15 | 354 | 3.2 | 6.4 | 0.00 | 0.00 | 0.00 | 55 | 1022.8 |
| 20260509143648 | 14 | 338 | 4.8 | 6.4 | 0.00 | 0.00 | 0.00 | 58 | 1022.7 |
| 20260509142623 | 13 | 15 | 4.8 | 6.4 | 0.00 | 0.00 | 0.00 | 59 | 1022.5 |
| 20260509141622 | 13 | 5 | 6.4 | 6.4 | 0.00 | 0.00 | 0.00 | 60 | 1022.6 |
| 20260509140618 | 12 | 339 | 4.8 | 6.4 | 0.00 | 0.00 | 0.00 | 62 | 1022.6 |
| 20260509135639 | 12 | 357 | 3.2 | 4.8 | 0.00 | 0.00 | 0.00 | 66 | 1022.4 |
| 20260509134633 | 11 | 297 | 1.6 | 3.2 | 0.00 | 0.00 | 0.00 | 68 | 1022.5 |
| 20260509133657 | 11 | 251 | 0.0 | 1.6 | 0.00 | 0.00 | 0.00 | 69 | 1022.2 |
| 20260509132653 | 11 | 231 | 0.0 | 1.6 | 0.00 | 0.00 | 0.00 | 66 | 1022.1 |
| 20260509131648 | 11 | 0.0 | 0.0 | 0.00 | 0.00 | 0.00 | 65 | 1022.2 | |
| 20260509130625 | 11 | 311 | 1.6 | 3.2 | 0.00 | 0.00 | 0.00 | 65 | 1022.1 |
| 20260509125625 | 11 | 336 | 3.2 | 4.8 | 0.00 | 0.00 | 0.00 | 65 | 1022.2 |
| 20260509124620 | 10 | 58 | 0.0 | 1.6 | 0.00 | 0.00 | 0.00 | 68 | 1022.0 |
| 20260509123623 | 10 | 346 | 3.2 | 6.4 | 0.00 | 0.00 | 0.00 | 69 | 1022.0 |